Printer-friendly version

IAU Minor Planet Center

Minor Planet Center

MPEC 2007-G27 : 2003 LS3

The following Minor Planet Electronic Circular may be linked-to from your own Web pages, but must not otherwise be redistributed electronically.


Read MPEC 2007-G26 Read MPEC 2007-G28


M.P.E.C. 2007-G27                                Issued 2007 Apr. 11, 14:26 UT

     The Minor Planet Electronic Circulars contain information on unusual
         minor planets and routine data on comets.  They are published
   on behalf of Commission 20 of the International Astronomical Union by the
          Minor Planet Center, Smithsonian Astrophysical Observatory,
                          Cambridge, MA 02138, U.S.A.

             Prepared using the Tamkin Foundation Computer Network

                              MPC@CFA.HARVARD.EDU
          URL http://cfa-www.harvard.edu/iau/mpc.html  ISSN 1523-6714

                                   2003 LS3

                           Revision to MPEC 2003-L18

Additional Observations:
     K03L03S  C2007 03 15.45743 14 41 03.72 -05 29 48.1          21.4 V EG027291
     K03L03S  C2007 03 15.46770 14 41 03.51 -05 29 43.4          21.2 V EG027291
     K03L03S HC2007 03 15.47872 14 41 03.31 -05 29 39.7                 EG027291
     K03L03S HC2007 04 11.45152 14 27 09.00 -02 06 30.6                 EG027291
     K03L03S HC2007 04 11.45774 14 27 08.75 -02 06 27.3                 EG027291
     K03L03S HC2007 04 11.46409 14 27 08.40 -02 06 24.9                 EG027291

Observer details:
291 LPL/Spacewatch II.  Observers J. V. Scotti, T. H. Bressi.  1.8-m f/2.7
    reflector + CCD.

First and last observations above in comparison with prediction:
Residuals in seconds of arc, reference and Delta-T
070315 291  4.6-  1.5+    070411 291  5.5-  0.8+    MPO 53734   +0.0059 day

Orbital elements:
2003 LS3                                                 Earth MOID = 0.2526 AU
Epoch 2007 Apr. 10.0 TT = JDT 2454200.5                 MPC
M 298.13523              (2000.0)            P               Q
n   0.22800533     Peri.  175.08277     +0.89326970     +0.44528084
a   2.6536239      Node   158.14825     -0.41786481     +0.87304319
e   0.5241593      Incl.    9.52583     -0.16570531     +0.19879781
P   4.32           H   17.8           G   0.15           U   1
Residuals in seconds of arc
030604 704  1.1+  0.0     030629 704  0.3+  0.3-    030801 952  0.1+  0.4+
030604 704  0.5-  0.2-    030629 704  0.4+  0.5-    030801 952  0.5-  0.7+
030604 704  0.1-  1.0+    030629 118  0.3-  0.2+    030801 952  0.1-  0.4+
030604 704  0.7+  0.2+    030629 118  0.3+  0.0     030801 952  0.4-  0.6+
030604 118  0.2-  0.0     030629 118  0.1+  0.0     030801 952  0.2+  0.6+
030604 118  0.2+  0.0     030629 118  0.4+  0.1-    030801 952  0.2-  0.7+
030604 118  0.3-  0.1-    030703 176  0.4+  0.1-    030801 952  0.4-  0.6+
030604 118  0.3-  0.2-    030703 176  0.1-  0.4-    030801 952  0.1+  0.4+
030605 G90  0.2-  0.1-    030703 176  0.1+  0.1-    030801 952  0.2+  0.3+
030605 G90  0.2-  0.2-    030705 704  2.0+  0.3-    030802 130  0.2-  0.7+
030605 850  0.7+  0.4+    030705 704  1.3+  0.3-    030802 130  0.4-  0.2-
030605 G90  0.2+  0.2-    030705 704  0.4+  0.6-    030802 151  0.1+  0.2+
030605 850  1.2-  0.8+    030705 704  0.0   0.7-    030802 151  0.0   0.3+
030605 850  0.3-  0.6+    030708 118  0.1+  0.1+    030802 151  0.1+  0.3+
030605 850  0.1+  0.3-    030708 118  0.4+  0.1+    030802 151  0.0   0.2+
030605 854  1.0-  0.7+    030710 204  0.6-  1.5-    030804 126  1.2-  0.2+
030605 854  0.3+  0.9+    030710 204  0.0   0.7+    030804 126  1.7-  1.3+
030605 926  0.2+  0.1+    030713 170  0.7+  0.3+    030804 126  0.5-  1.2+
030605 854  0.2+  0.6+    030713 170  0.1+  0.2-    030804 126  0.7+  0.2+
030605 926  0.2+  0.1-    030713 170  0.0   0.1-    030804 126  0.2-  0.2+
030605 926 (0.1-  2.0+)   030714 118  0.4-  0.3-    030805 469  0.2+  0.0
030605 620  0.3-  0.3-    030714 118  0.8+  0.9+    030805 469  0.0   0.3+
030606 620  0.4-  0.0     030719 118  0.6+  0.2+    030805 469  0.3+  0.2+
030606 620  0.0   0.1-    030719 118  0.5+  0.0     030814 H72  1.1+  0.0
030606 G90  0.2-  0.2+    030719 118  0.1+  0.2-    030814 H72  0.5-  0.8+
030606 G90  0.2-  0.0     030719 J87  1.1+  0.5-    030814 H72  0.2-  0.5-
030606 G90  0.3-  0.2-    030719 J87  0.4-  0.2-    030814 H72  0.9-  0.4-
030606 651  0.3-  0.2-    030719 J87  0.3+  0.2+    030821 587 (3.4-  2.5-)
030606 651  1.2+  0.2-    030719 J87  0.6+  0.1+    030821 587  0.2+  0.3+
030606 651  0.1+  0.1-    030720 118  0.5+  0.0     030821 587  1.5+  0.9+
030606 926  0.3+  0.0     030720 118  0.2+  0.3-    030916 608  0.5+  0.6-
030606 926  0.3+  0.3-    030721 J87  0.5-  0.2-    030916 608  1.1+  0.5-
030606 926  0.1+  0.1-    030721 J87  0.4+  0.6+    030916 608  0.6+  0.8-
030606 926  0.1+  0.0     030721 J87  0.5-  0.1+    030918 670  0.1+  0.4-
030615 413  0.4+  0.0     030723 J87  0.7-  0.2-    030918 670  0.3+  0.5+
030615 413  0.2+  0.1-    030723 J87  0.0   0.6-    030920 170  0.6+  0.4+
030620 151  0.1-  1.3-    030723 J87  0.7+  0.3+    030920 170  0.5+  0.5+
030620 151  0.2-  0.1-    030724 938  0.3+  0.4-    030920 170  0.4+  0.3+
030620 151  0.6-  0.6+    030725 J87  0.9+  0.1+    030921 608  0.1+  0.1-
030620 151  0.5-  0.9+    030725 J87  0.0   0.2-    030921 608  0.4-  0.1+
030620 587  0.5-  0.1-    030725 J87  0.9-  1.2-    030921 608  0.1-  0.2-
030620 587  0.5-  0.5+    030727 071  1.4-  1.7-    030926 E14  0.1+  0.4-
030620 952  0.4+  0.0     030727 071  0.5-  1.5-    030926 E14  0.0   0.2+
030620 952  0.3+  0.4+    030727 071  0.5-  1.5-    030926 E14  0.5-  0.4+
030621 952  0.1+  0.0     030727 071  0.5-  1.0-    030928 704  0.4-  0.1+
030621 952  0.3+  0.3+    030728 240  0.1-  0.3+    030928 704  0.4-  0.3+
030621 A50  0.2+  0.3+    030728 240  0.1-  0.0     030928 704  0.4-  0.5-
030621 A50  0.2+  0.2+    030728 240  0.1-  0.0     030928 704  0.2-  0.4+
030621 A50  0.4+  0.1+    030728 240  0.1+  0.1+    030928 704  0.3-  0.4+
030621 A50  0.7-  0.0     030728 240  0.1+  0.2-    031010 E14  0.6-  0.3+
030621 A50  0.6-  0.1+    030728 240  0.1+  0.2+    031010 E14  0.1+  0.2-
030621 A50  0.6-  0.1+    030729 240  0.4-  0.2-    031010 E14  0.3+  0.5+
030624 046  0.5-  0.2-    030729 240  0.1-  0.0     031016 699 (0.7-  2.5+)
030624 046  0.3-  0.4+    030729 240  0.2+  0.3+    031016 699  0.5+  1.2+
030624 046  0.3+  0.4-    030729 240  0.0   0.1-    031016 699  0.3-  1.0+
030624 046  0.2-  0.2-    030801 636  0.0   0.8-    031016 699  0.3-  1.6+
030625 670  0.3+  0.1-    030801 636  0.6+  0.3+    031017 704  0.1+  0.4+
030625 670  1.4+  0.0     030801 636  0.6+  0.7-    031017 704  0.1+  0.3+
030625 670  0.6+  0.2-    030801 952  0.5-  0.2-    031017 704  0.8+  0.4-
030627 046  0.2-  0.0     030801 952  0.1-  0.1+    031017 704  0.2+  0.3+
030627 046  0.7-  0.1-    030801 952  0.2+  0.2+    031017 704  0.2-  0.7+
030627 046  0.5-  0.2-    030801 J87  1.5-  0.4-    031029 608  0.5+  0.3-
030627 046  0.5-  0.6+    030801 952  0.5-  0.1-    031029 608  0.0   1.5-
030627 046  0.0   0.1-    030801 J87  0.4-  0.5-    031029 608  0.1+  0.2-
030628 071  0.2-  0.5-    030801 952  1.0-  0.2+    070315 291  0.6+  0.2+
030628 071  0.3-  0.6-    030801 J87  0.3-  0.2-    070315 291  0.7-  1.2+
030628 071  0.0   0.8-    030801 952  1.2-  0.6-    070315 291  1.7-  0.9+
030629 704  0.7+  0.3-    030801 952  0.4-  0.0     070411 291  0.0   0.2+
030629 704  0.4+  0.2-    030801 952  0.4-  0.3+    070411 291  1.1+  0.3+
030629 704  0.4+  0.1-    030801 952  0.5-  0.3+    070411 291  0.7+  0.6-

Ephemeris:
2003 LS3                 a,e,i = 2.65, 0.52, 10                  q = 1.2627
Date    TT    R. A. (2000) Decl.     Delta      r     Elong.  Phase     V
2007 04 10    14 28.34   -02 18.9    1.735    2.699   160.4     7.2    21.7
2007 04 20    14 19.43   -00 52.4    1.655    2.644   167.2     4.8    21.4
2007 04 30    14 09.30   +00 30.4    1.604    2.588   164.3     6.0    21.4
2007 05 10    13 58.99   +01 41.6    1.581    2.531   154.8     9.8    21.4
2007 05 20    13 49.60   +02 34.5    1.582    2.473   143.9    14.0    21.6
2007 05 30    13 42.10   +03 04.6    1.605    2.413   133.0    17.9    21.7
2007 06 09    13 37.12   +03 10.9    1.644    2.353   122.7    21.3    21.8
2007 06 19    13 35.01   +02 54.4    1.694    2.291   113.1    24.1    21.9
2007 06 29    13 35.84   +02 17.4    1.750    2.229   104.2    26.2    21.9
2007 07 09    13 39.50   +01 22.9    1.808    2.166    96.1    27.8    22.0
2007 07 19    13 45.81   +00 13.6    1.865    2.102    88.6    28.9    22.0
2007 07 29    13 54.60   -01 08.1    1.919    2.038    81.7    29.5    22.0
2007 08 08    14 05.66   -02 39.6    1.967    1.973    75.4    29.8    22.0
2007 08 18    14 18.88   -04 19.2    2.008    1.908    69.6    29.8    22.0
2007 08 28    14 34.17   -06 04.6    2.042    1.843    64.2    29.6    22.0

Kyle E. Smalley              (C) Copyright 2007 MPC           M.P.E.C. 2007-G27

Read MPEC 2007-G26 Read MPEC 2007-G28


Our Web policy. Index to the CBAT/MPC/ICQ pages.


Valid HTML 4.01!